Location: Caltech
(34.1382°N, 118.1253°W)
Time: 04:25:54
(UTC-07:00)

NOAA 19 - Visible Passes

Search period start: 25 May 2015 00:00
Search period end: 04 June 2015 00:00
Orbit: 843 x 862 km, 99.0° (Epoch: 24 May)

Date Brightness Start Highest point End Pass type
(mag) Time Alt. Az. Time Alt. Az. Time Alt. Az.
25 May 7.5 02:00:35 10° ENE 02:03:08 14° E 02:04:06 13° ESE visible
25 May 5.3 03:38:55 10° N 03:44:23 63° WNW 03:46:09 41° SW visible
26 May 7.7 01:51:33 10° E 01:51:43 10° E 01:52:22 10° E visible
26 May 5.1 03:27:38 10° N 03:33:11 80° WNW 03:34:49 47° SSW visible
27 May 5.2 03:16:24 10° NNE 03:21:57 81° ESE 03:23:28 50° S visible
27 May 7.2 05:00:01 10° NW 05:02:04 12° WNW 05:03:46 10° W visible
28 May 5.4 03:05:14 10° NNE 03:10:42 63° E 03:12:07 47° SSE visible
28 May 7.0 04:47:46 10° NNW 04:50:57 15° WNW 04:53:52 10° W visible
29 May 5.8 02:54:08 10° NNE 02:59:27 48° E 03:00:46 40° SE visible
29 May 6.8 04:35:56 10° NNW 04:39:50 19° WNW 04:42:49 12° WSW visible
30 May 6.2 02:43:06 10° NNE 02:48:09 38° E 02:49:25 33° SE visible
30 May 6.5 04:24:17 10° NNW 04:28:42 24° WNW 04:31:28 16° WSW visible
31 May 6.5 02:32:09 10° NE 02:36:50 29° E 02:38:04 27° ESE visible
31 May 6.2 04:12:44 10° N 04:17:33 31° WNW 04:20:07 21° WSW visible
01 Jun 6.9 02:21:18 10° NE 02:25:30 23° E 02:26:43 21° ESE visible
01 Jun 5.9 04:01:17 10° N 04:06:22 39° WNW 04:08:46 26° WSW visible
02 Jun 7.2 02:10:39 10° NE 02:14:07 18° E 02:15:21 17° ESE visible
02 Jun 5.5 03:49:53 10° N 03:55:11 50° WNW 03:57:24 31° SW visible
03 Jun 7.5 02:00:19 10° ENE 02:02:44 13° E 02:04:00 13° ESE visible
03 Jun 5.3 03:38:32 10° N 03:44:00 64° WNW 03:46:03 38° SW visible
